USA 148

Last updated on Oct. 1, 2020, 5:42 a.m. UTC

1 26052U 00001A   20274.60935201  .00000034  00000-0  00000+0 0  9993
2 26052   8.5695  46.0123 0001863  98.0030 265.5543  1.00272314 10713
UTC
Height (km)
Latitude
Longitude
Inclination
Orbital Period
UTC large
Height (km)
Speed (km/s)
/
Latitude / Longitude
Inclination (degrees)
Orbital Period (minutes)
Azimuth
Elevation
Range (km)
Doppler Factor
iOS Compass Heading
iOS Angle

Next 30 passes for location: Hong Kong

Rise time Rise Azimuth (degrees) Set time Set Azimuth (degrees) Duration Max altitude (degrees)

No matching passes for this satellites